Year,Month,Day,Hour,Minute,Value (Times are PST for temperature in C)
2013,03,23,00,00,1.30
2013,03,23,00,01,1.30
2013,03,23,00,02,1.30
2013,03,23,00,03,1.30
2013,03,23,00,04,1.30
2013,03,23,00,05,1.30
2013,03,23,00,06,1.30
2013,03,23,00,07,1.30
2013,03,23,00,08,1.30
2013,03,23,00,09,1.30
2013,03,23,00,10,1.30
2013,03,23,00,11,1.30
2013,03,23,00,12,1.30
2013,03,23,00,13,1.30
2013,03,23,00,14,1.30
2013,03,23,00,15,1.30
2013,03,23,00,16,1.30
2013,03,23,00,17,1.30
2013,03,23,00,18,1.30
2013,03,23,00,19,1.30
2013,03,23,00,20,1.30
2013,03,23,00,21,1.30
2013,03,23,00,22,1.30
2013,03,23,00,23,1.30
2013,03,23,00,24,1.30
2013,03,23,00,25,1.30
2013,03,23,00,26,1.30
2013,03,23,00,27,1.30
2013,03,23,00,28,1.30
2013,03,23,00,29,1.30
2013,03,23,00,30,1.30
2013,03,23,00,31,1.30
2013,03,23,00,32,1.30
2013,03,23,00,33,1.30
2013,03,23,00,34,1.30
2013,03,23,00,35,1.30
2013,03,23,00,36,1.30
2013,03,23,00,37,1.30
2013,03,23,00,38,1.30
2013,03,23,00,39,1.30
2013,03,23,00,40,1.30
2013,03,23,00,41,1.30
2013,03,23,00,42,1.30
2013,03,23,00,43,1.30
2013,03,23,00,44,1.30
2013,03,23,00,45,1.30
2013,03,23,00,46,1.30
2013,03,23,00,47,1.30
2013,03,23,00,48,1.30
2013,03,23,00,49,1.30
2013,03,23,00,50,1.30
2013,03,23,00,51,1.30
2013,03,23,00,52,1.30
2013,03,23,00,53,1.30
2013,03,23,00,54,1.30
2013,03,23,00,55,1.30
2013,03,23,00,56,1.30
2013,03,23,00,57,1.30
2013,03,23,00,58,1.30
2013,03,23,00,59,1.30
2013,03,23,01,00,1.30
2013,03,23,01,01,1.30
2013,03,23,01,02,1.30
2013,03,23,01,03,1.30
2013,03,23,01,04,1.30
2013,03,23,01,05,1.30
2013,03,23,01,06,1.30
2013,03,23,01,07,1.30
2013,03,23,01,08,1.30
2013,03,23,01,09,1.30
2013,03,23,01,10,1.30
2013,03,23,01,11,1.30
2013,03,23,01,12,1.30
2013,03,23,01,13,1.30
2013,03,23,01,14,1.30
2013,03,23,01,15,1.30
2013,03,23,01,16,1.30
2013,03,23,01,17,1.30
2013,03,23,01,18,1.30
2013,03,23,01,19,1.30
2013,03,23,01,20,1.30
2013,03,23,01,21,1.30
2013,03,23,01,22,1.30
2013,03,23,01,23,1.30
2013,03,23,01,24,1.30
2013,03,23,01,25,1.30
2013,03,23,01,26,1.30
2013,03,23,01,27,1.30
2013,03,23,01,28,1.30
2013,03,23,01,29,1.30
2013,03,23,01,30,1.30
2013,03,23,01,31,1.30
2013,03,23,01,32,1.30
2013,03,23,01,33,1.30
2013,03,23,01,34,1.30
2013,03,23,01,35,1.30
2013,03,23,01,36,1.30
2013,03,23,01,37,1.30
2013,03,23,01,38,1.30
2013,03,23,01,39,1.30
2013,03,23,01,40,1.30
2013,03,23,01,41,1.30
2013,03,23,01,42,1.30
2013,03,23,01,43,1.30
2013,03,23,01,44,1.30
2013,03,23,01,45,1.30
2013,03,23,01,46,1.30
2013,03,23,01,47,1.30
2013,03,23,01,48,1.30
2013,03,23,01,49,1.30
2013,03,23,01,50,1.30
2013,03,23,01,51,1.30
2013,03,23,01,52,1.30
2013,03,23,01,53,1.30
2013,03,23,01,54,1.30
2013,03,23,01,55,1.30
2013,03,23,01,56,1.30
2013,03,23,01,57,1.30
2013,03,23,01,58,1.30
2013,03,23,01,59,1.30
2013,03,23,02,00,1.30
2013,03,23,02,01,1.30
2013,03,23,02,02,1.30
2013,03,23,02,03,1.30
2013,03,23,02,04,1.30
2013,03,23,02,05,1.30
2013,03,23,02,06,1.30
2013,03,23,02,07,1.30
2013,03,23,02,08,1.30
2013,03,23,02,09,1.30
2013,03,23,02,10,1.30
2013,03,23,02,11,1.30
2013,03,23,02,12,1.30
2013,03,23,02,13,1.30
2013,03,23,02,14,1.30
2013,03,23,02,15,1.30
2013,03,23,02,16,1.30
2013,03,23,02,17,1.30
2013,03,23,02,18,1.30
2013,03,23,02,19,1.30
2013,03,23,02,20,1.30
2013,03,23,02,21,1.30
2013,03,23,02,22,1.30
2013,03,23,02,23,1.30
2013,03,23,02,24,1.30
2013,03,23,02,25,1.30
2013,03,23,02,26,1.30
2013,03,23,02,27,1.30
2013,03,23,02,28,1.40
2013,03,23,02,29,1.40
2013,03,23,02,30,1.40
2013,03,23,02,31,1.40
2013,03,23,02,32,1.30
2013,03,23,02,33,1.40
2013,03,23,02,34,1.40
2013,03,23,02,35,1.30
2013,03,23,02,36,1.30
2013,03,23,02,37,1.30
2013,03,23,02,38,1.30
2013,03,23,02,39,1.30
2013,03,23,02,40,1.30
2013,03,23,02,41,1.40
2013,03,23,02,42,1.30
2013,03,23,02,43,1.30
2013,03,23,02,44,1.30
2013,03,23,02,45,1.30
2013,03,23,02,46,1.30
2013,03,23,02,47,1.30
2013,03,23,02,48,1.30
2013,03,23,02,49,1.30
2013,03,23,02,50,1.30
2013,03,23,02,51,1.30
2013,03,23,02,52,1.30
2013,03,23,02,53,1.30
2013,03,23,02,54,1.30
2013,03,23,02,55,1.30
2013,03,23,02,56,1.40
2013,03,23,02,57,1.40
2013,03,23,02,58,1.30
2013,03,23,02,59,1.30
2013,03,23,03,00,1.40
2013,03,23,03,01,1.40
2013,03,23,03,02,1.40
2013,03,23,03,03,1.40
2013,03,23,03,04,1.40
2013,03,23,03,05,1.40
2013,03,23,03,06,1.40
2013,03,23,03,07,1.40
2013,03,23,03,08,1.40
2013,03,23,03,09,1.40
2013,03,23,03,10,1.40
2013,03,23,03,11,1.40
2013,03,23,03,12,1.40
2013,03,23,03,13,1.40
2013,03,23,03,14,1.40
2013,03,23,03,15,1.40
2013,03,23,03,16,1.40
2013,03,23,03,17,1.40
2013,03,23,03,18,1.40
2013,03,23,03,19,1.40
2013,03,23,03,20,1.40
2013,03,23,03,21,1.40
2013,03,23,03,22,1.40
2013,03,23,03,23,1.40
2013,03,23,03,24,1.40
2013,03,23,03,25,1.40
2013,03,23,03,26,1.40
2013,03,23,03,27,1.40
2013,03,23,03,28,1.40
2013,03,23,03,29,1.40
2013,03,23,03,30,1.40
2013,03,23,03,31,1.40
2013,03,23,03,32,1.40
2013,03,23,03,33,1.40
2013,03,23,03,34,1.40
2013,03,23,03,35,1.40
2013,03,23,03,36,1.40
2013,03,23,03,37,1.40
2013,03,23,03,38,1.40
2013,03,23,03,39,1.40
2013,03,23,03,40,1.40
2013,03,23,03,41,1.40
2013,03,23,03,42,1.40
2013,03,23,03,43,1.40
2013,03,23,03,44,1.40
2013,03,23,03,45,1.40
2013,03,23,03,46,1.40
2013,03,23,03,47,1.40
2013,03,23,03,48,1.40
2013,03,23,03,49,1.40
2013,03,23,03,50,1.40
2013,03,23,03,51,1.40
2013,03,23,03,52,1.50
2013,03,23,03,53,1.50
2013,03,23,03,54,1.50
2013,03,23,03,55,1.60
2013,03,23,03,56,1.60
2013,03,23,03,57,1.60
2013,03,23,03,58,1.60
2013,03,23,03,59,1.60
2013,03,23,04,00,1.60
2013,03,23,04,01,1.60
2013,03,23,04,02,1.60
2013,03,23,04,03,1.70
2013,03,23,04,04,1.70
2013,03,23,04,05,1.70
2013,03,23,04,06,1.70
2013,03,23,04,07,1.70
2013,03,23,04,08,1.70
2013,03,23,04,09,1.70
2013,03,23,04,10,1.70
2013,03,23,04,11,1.80
2013,03,23,04,12,1.80
2013,03,23,04,13,1.80
2013,03,23,04,14,1.80
2013,03,23,04,15,1.80
2013,03,23,04,16,1.70
2013,03,23,04,17,1.70
2013,03,23,04,18,1.70
2013,03,23,04,19,1.70
2013,03,23,04,20,1.70
2013,03,23,04,21,1.70
2013,03,23,04,22,1.70
2013,03,23,04,23,1.70
2013,03,23,04,24,1.70
2013,03,23,04,25,1.70
2013,03,23,04,26,1.70
2013,03,23,04,27,1.60
2013,03,23,04,28,1.60
2013,03,23,04,29,1.60
2013,03,23,04,30,1.60
2013,03,23,04,31,1.60
2013,03,23,04,32,1.60
2013,03,23,04,33,1.60
2013,03,23,04,34,1.60
2013,03,23,04,35,1.60
2013,03,23,04,36,1.60
2013,03,23,04,37,1.60
2013,03,23,04,38,1.60
2013,03,23,04,39,1.60
2013,03,23,04,40,1.60
2013,03,23,04,41,1.60
2013,03,23,04,42,1.60
2013,03,23,04,43,1.60
2013,03,23,04,44,1.60
2013,03,23,04,45,1.60
2013,03,23,04,46,1.60
2013,03,23,04,47,1.60
2013,03,23,04,48,1.60
2013,03,23,04,49,1.60
2013,03,23,04,50,1.60
2013,03,23,04,51,1.60
2013,03,23,04,52,1.60
2013,03,23,04,53,1.60
2013,03,23,04,54,1.60
2013,03,23,04,55,1.60
2013,03,23,04,56,1.60
2013,03,23,04,57,1.60
2013,03,23,04,58,1.60
2013,03,23,04,59,1.60
2013,03,23,05,00,1.60
2013,03,23,05,01,1.60
2013,03,23,05,02,1.60
2013,03,23,05,03,1.60
2013,03,23,05,04,1.60
2013,03,23,05,05,1.60
2013,03,23,05,06,1.60
2013,03,23,05,07,1.60
2013,03,23,05,08,1.60
2013,03,23,05,09,1.60
2013,03,23,05,10,1.60
2013,03,23,05,11,1.60
2013,03,23,05,12,1.60
2013,03,23,05,13,1.60
2013,03,23,05,14,1.60
2013,03,23,05,15,1.60
2013,03,23,05,16,1.60
2013,03,23,05,17,1.60
2013,03,23,05,18,1.60
2013,03,23,05,19,1.60
2013,03,23,05,20,1.60
2013,03,23,05,21,1.60
2013,03,23,05,22,1.60
2013,03,23,05,23,1.60
2013,03,23,05,24,1.60
2013,03,23,05,25,1.60
2013,03,23,05,26,1.60
2013,03,23,05,27,1.60
2013,03,23,05,28,1.60
2013,03,23,05,29,1.60
2013,03,23,05,30,1.60
2013,03,23,05,31,1.60
2013,03,23,05,32,1.50
2013,03,23,05,33,1.50
2013,03,23,05,34,1.50
2013,03,23,05,35,1.50
2013,03,23,05,36,1.50
2013,03,23,05,37,1.50
2013,03,23,05,38,1.50
2013,03,23,05,39,1.40
2013,03,23,05,40,1.40
2013,03,23,05,41,1.40
2013,03,23,05,42,1.40
2013,03,23,05,43,1.40
2013,03,23,05,44,1.40
2013,03,23,05,45,1.40
2013,03,23,05,46,1.40
2013,03,23,05,47,1.40
2013,03,23,05,48,1.40
2013,03,23,05,49,1.40
2013,03,23,05,50,1.30
2013,03,23,05,51,1.30
2013,03,23,05,52,1.30
2013,03,23,05,53,1.30
2013,03,23,05,54,1.30
2013,03,23,05,55,1.30
2013,03,23,05,56,1.30
2013,03,23,05,57,1.30
2013,03,23,05,58,1.30
2013,03,23,05,59,1.30
2013,03,23,06,00,1.30
2013,03,23,06,01,1.30
2013,03,23,06,02,1.30
2013,03,23,06,03,1.30
2013,03,23,06,04,1.30
2013,03,23,06,05,1.30
2013,03,23,06,06,1.30
2013,03,23,06,07,1.30
2013,03,23,06,08,1.30
2013,03,23,06,09,1.30
2013,03,23,06,10,1.30
2013,03,23,06,11,1.30
2013,03,23,06,12,1.30
2013,03,23,06,13,1.30
2013,03,23,06,14,1.30
2013,03,23,06,15,1.30
2013,03,23,06,16,1.30
2013,03,23,06,17,1.30
2013,03,23,06,18,1.30
2013,03,23,06,19,1.30
2013,03,23,06,20,1.30
2013,03,23,06,21,1.30
2013,03,23,06,22,1.30
2013,03,23,06,23,1.30
2013,03,23,06,24,1.30
2013,03,23,06,25,1.30
2013,03,23,06,26,1.30
2013,03,23,06,27,1.30
2013,03,23,06,28,1.30
2013,03,23,06,29,1.30
2013,03,23,06,30,1.30
2013,03,23,06,31,1.30
2013,03,23,06,32,1.30
2013,03,23,06,33,1.30
2013,03,23,06,34,1.30
2013,03,23,06,35,1.30
2013,03,23,06,36,1.30
2013,03,23,06,37,1.30
2013,03,23,06,38,1.30
2013,03,23,06,39,1.30
2013,03,23,06,40,1.30
2013,03,23,06,41,1.30
2013,03,23,06,42,1.30
2013,03,23,06,43,1.30
2013,03,23,06,44,1.30
2013,03,23,06,45,1.30
2013,03,23,06,46,1.30
2013,03,23,06,47,1.30
2013,03,23,06,48,1.30
2013,03,23,06,49,1.30
2013,03,23,06,50,1.30
2013,03,23,06,51,1.30
2013,03,23,06,52,1.30
2013,03,23,06,53,1.30
2013,03,23,06,54,1.30
2013,03,23,06,55,1.30
2013,03,23,06,56,1.30
2013,03,23,06,57,1.30
2013,03,23,06,58,1.30
2013,03,23,06,59,1.40
2013,03,23,07,00,1.40
2013,03,23,07,01,1.50
2013,03,23,07,02,1.70
2013,03,23,07,03,1.90
2013,03,23,07,04,2.00
2013,03,23,07,05,2.10
2013,03,23,07,06,2.20
2013,03,23,07,07,2.30
2013,03,23,07,08,2.60
2013,03,23,07,09,2.90
2013,03,23,07,10,3.00
2013,03,23,07,11,3.30
2013,03,23,07,12,3.50
2013,03,23,07,13,3.70
2013,03,23,07,14,3.80
2013,03,23,07,15,4.00
2013,03,23,07,16,4.00
2013,03,23,07,17,4.10
2013,03,23,07,18,4.20
2013,03,23,07,19,4.20
2013,03,23,07,20,4.30
2013,03,23,07,21,4.30
2013,03,23,07,22,4.30
2013,03,23,07,23,4.30
2013,03,23,07,24,4.30
2013,03,23,07,25,4.40
2013,03,23,07,26,4.40
2013,03,23,07,27,4.40
2013,03,23,07,28,4.40
2013,03,23,07,29,4.40
2013,03,23,07,30,4.30
2013,03,23,07,31,4.30
2013,03,23,07,32,4.40
2013,03,23,07,33,4.40
2013,03,23,07,34,4.40
2013,03,23,07,35,4.40
2013,03,23,07,36,4.40
2013,03,23,07,37,4.40
2013,03,23,07,38,4.40
2013,03,23,07,39,4.40
2013,03,23,07,40,4.40
2013,03,23,07,41,4.40
2013,03,23,07,42,4.30
2013,03,23,07,43,4.30
2013,03,23,07,44,4.30
2013,03,23,07,45,4.30
2013,03,23,07,46,4.30
2013,03,23,07,47,4.30
2013,03,23,07,48,4.30
2013,03,23,07,49,4.30
2013,03,23,07,50,4.30
2013,03,23,07,51,4.30
2013,03,23,07,52,4.30
2013,03,23,07,53,4.40
2013,03,23,07,54,4.40
2013,03,23,07,55,4.30
2013,03,23,07,56,4.30
2013,03,23,07,57,4.30
2013,03,23,07,58,4.30
2013,03,23,07,59,4.30
2013,03,23,08,00,4.30
2013,03,23,08,01,4.30
2013,03,23,08,02,4.30
2013,03,23,08,03,4.30
2013,03,23,08,04,4.30
2013,03,23,08,05,4.30
2013,03,23,08,06,4.30
2013,03,23,08,07,4.30
2013,03,23,08,08,4.30
2013,03,23,08,09,4.30
2013,03,23,08,10,4.20
2013,03,23,08,11,4.20
2013,03,23,08,12,4.20
2013,03,23,08,13,4.20
2013,03,23,08,14,4.20
2013,03,23,08,15,4.20
2013,03,23,08,16,4.20
2013,03,23,08,17,4.20
2013,03,23,08,18,4.20
2013,03,23,08,19,4.20
2013,03,23,08,20,4.20
2013,03,23,08,21,4.20
2013,03,23,08,22,4.20
2013,03,23,08,23,4.20
2013,03,23,08,24,4.30
2013,03,23,08,25,4.20
2013,03,23,08,26,4.30
2013,03,23,08,27,4.30
2013,03,23,08,28,4.20
2013,03,23,08,29,4.20
2013,03,23,08,30,4.20
2013,03,23,08,31,4.20
2013,03,23,08,32,4.20
2013,03,23,08,33,4.20
2013,03,23,08,34,4.20
2013,03,23,08,35,4.20
2013,03,23,08,36,4.20
2013,03,23,08,37,4.20
2013,03,23,08,38,4.20
2013,03,23,08,39,4.20
2013,03,23,08,40,4.20
2013,03,23,08,41,4.20
2013,03,23,08,42,4.30
2013,03,23,08,43,4.30
2013,03,23,08,44,4.30
2013,03,23,08,45,4.30
2013,03,23,08,46,4.30
2013,03,23,08,47,4.30
2013,03,23,08,48,4.20
2013,03,23,08,49,4.30
2013,03,23,08,50,4.30
2013,03,23,08,51,4.30
2013,03,23,08,52,4.20
2013,03,23,08,53,4.20
2013,03,23,08,54,4.20
2013,03,23,08,55,4.20
2013,03,23,08,56,4.20
2013,03,23,08,57,4.30
2013,03,23,08,58,4.30
2013,03,23,08,59,4.30
2013,03,23,09,00,4.30
2013,03,23,09,01,4.30
2013,03,23,09,02,4.30
2013,03,23,09,03,4.20
2013,03,23,09,04,4.20
2013,03,23,09,05,4.20
2013,03,23,09,06,4.30
2013,03,23,09,07,4.30
2013,03,23,09,08,4.30
2013,03,23,09,09,4.30
2013,03,23,09,10,4.30
2013,03,23,09,11,4.30
2013,03,23,09,12,4.30
2013,03,23,09,13,4.30
2013,03,23,09,14,4.30
2013,03,23,09,15,4.30
2013,03,23,09,16,4.30
2013,03,23,09,17,4.30
2013,03,23,09,18,4.30
2013,03,23,09,19,4.30
2013,03,23,09,20,4.30
2013,03,23,09,21,4.30
2013,03,23,09,22,4.30
2013,03,23,09,23,4.30
2013,03,23,09,24,4.30
2013,03,23,09,25,4.30
2013,03,23,09,26,4.30
2013,03,23,09,27,4.30
2013,03,23,09,28,4.30
2013,03,23,09,29,4.30
2013,03,23,09,30,4.20
2013,03,23,09,31,4.20
2013,03,23,09,32,4.20
2013,03,23,09,33,4.20
2013,03,23,09,34,4.20
2013,03,23,09,35,4.20
2013,03,23,09,36,4.20
2013,03,23,09,37,4.30
2013,03,23,09,38,4.30
2013,03,23,09,39,4.30
2013,03,23,09,40,4.20
2013,03,23,09,41,4.20
2013,03,23,09,42,4.20
2013,03,23,09,43,4.20
2013,03,23,09,44,4.20
2013,03,23,09,45,4.20
2013,03,23,09,46,4.20
2013,03,23,09,47,4.20
2013,03,23,09,48,4.20
2013,03,23,09,49,4.20
2013,03,23,09,50,4.20
2013,03,23,09,51,4.20
2013,03,23,09,52,4.20
2013,03,23,09,53,4.10
2013,03,23,09,54,4.10
2013,03,23,09,55,4.20
2013,03,23,09,56,4.20
2013,03,23,09,57,4.20
2013,03,23,09,58,4.20
2013,03,23,09,59,4.20
2013,03,23,10,00,4.20
2013,03,23,10,01,4.10
2013,03,23,10,02,4.20
2013,03,23,10,03,4.20
2013,03,23,10,04,4.20
2013,03,23,10,05,4.20
2013,03,23,10,06,4.20
2013,03,23,10,07,4.20
2013,03,23,10,08,4.20
2013,03,23,10,09,4.20
2013,03,23,10,10,4.20
2013,03,23,10,11,4.20
2013,03,23,10,12,4.20
2013,03,23,10,13,4.20
2013,03,23,10,14,4.20
2013,03,23,10,15,4.20
2013,03,23,10,16,4.30
2013,03,23,10,17,4.30
2013,03,23,10,18,4.30
2013,03,23,10,19,4.40
2013,03,23,10,20,4.40
2013,03,23,10,21,4.40
2013,03,23,10,22,4.40
2013,03,23,10,23,4.40
2013,03,23,10,24,4.30
2013,03,23,10,25,4.30
2013,03,23,10,26,4.40
2013,03,23,10,27,4.40
2013,03,23,10,28,4.40
2013,03,23,10,29,4.50
2013,03,23,10,30,4.50
2013,03,23,10,31,4.50
2013,03,23,10,32,4.50
2013,03,23,10,33,4.50
2013,03,23,10,34,4.60
2013,03,23,10,35,4.60
2013,03,23,10,36,4.60
2013,03,23,10,37,4.60
2013,03,23,10,38,4.60
2013,03,23,10,39,4.60
2013,03,23,10,40,4.60
2013,03,23,10,41,4.60
2013,03,23,10,42,4.60
2013,03,23,10,43,4.60
2013,03,23,10,44,4.60
2013,03,23,10,45,4.70
2013,03,23,10,46,4.70
2013,03,23,10,47,4.70
2013,03,23,10,48,4.80
2013,03,23,10,49,4.70
2013,03,23,10,50,4.70
2013,03,23,10,51,4.70
2013,03,23,10,52,4.70
2013,03,23,10,53,4.70
2013,03,23,10,54,4.70
2013,03,23,10,55,4.80
2013,03,23,10,56,4.70
2013,03,23,10,57,4.80
2013,03,23,10,58,4.80
2013,03,23,10,59,4.80
2013,03,23,11,00,4.90
2013,03,23,11,01,5.00
2013,03,23,11,02,5.00
2013,03,23,11,03,5.10
2013,03,23,11,04,5.10
2013,03,23,11,05,5.10
2013,03,23,11,06,5.10
2013,03,23,11,07,5.10
2013,03,23,11,08,5.00
2013,03,23,11,09,5.00
2013,03,23,11,10,5.10
2013,03,23,11,11,5.00
2013,03,23,11,12,5.00
2013,03,23,11,13,5.10
2013,03,23,11,14,5.00
2013,03,23,11,15,5.00
2013,03,23,11,16,5.00
2013,03,23,11,17,5.00
2013,03,23,11,18,5.00
2013,03,23,11,19,5.00
2013,03,23,11,20,5.00
2013,03,23,11,21,5.00
2013,03,23,11,22,5.00
2013,03,23,11,23,5.10
2013,03,23,11,24,5.10
2013,03,23,11,25,5.10
2013,03,23,11,26,5.10
2013,03,23,11,27,5.10
2013,03,23,11,28,5.10
2013,03,23,11,29,5.10
2013,03,23,11,30,5.10
2013,03,23,11,31,5.10
2013,03,23,11,32,5.20
2013,03,23,11,33,5.20
2013,03,23,11,34,5.30
2013,03,23,11,35,5.20
2013,03,23,11,36,5.20
2013,03,23,11,37,5.30
2013,03,23,11,38,5.30
2013,03,23,11,39,5.30
2013,03,23,11,40,5.30
2013,03,23,11,41,5.20
2013,03,23,11,42,5.20
2013,03,23,11,43,5.20
2013,03,23,11,44,5.10
2013,03,23,11,45,5.10
2013,03,23,11,46,5.10
2013,03,23,11,47,5.00
2013,03,23,11,48,5.00
2013,03,23,11,49,5.00
2013,03,23,11,50,5.00
2013,03,23,11,51,5.00
2013,03,23,11,52,5.00
2013,03,23,11,53,5.10
2013,03,23,11,54,5.10
2013,03,23,11,55,5.10
2013,03,23,11,56,5.20
2013,03,23,11,57,5.20
2013,03,23,11,58,5.20
2013,03,23,11,59,5.20
2013,03,23,12,00,5.10
2013,03,23,12,01,5.10
2013,03,23,12,02,5.20
2013,03,23,12,03,5.20
2013,03,23,12,04,5.30
2013,03,23,12,05,5.30
2013,03,23,12,06,5.30
2013,03,23,12,07,5.30
2013,03,23,12,08,5.20
2013,03,23,12,09,5.20
2013,03,23,12,10,5.20
2013,03,23,12,11,5.30
2013,03,23,12,12,5.40
2013,03,23,12,13,5.30
2013,03,23,12,14,5.30
2013,03,23,12,15,5.30
2013,03,23,12,16,5.30
2013,03,23,12,17,5.30
2013,03,23,12,18,5.20
2013,03,23,12,19,5.10
2013,03,23,12,20,5.10
2013,03,23,12,21,5.20
2013,03,23,12,22,5.20
2013,03,23,12,23,5.20
2013,03,23,12,24,5.30
2013,03,23,12,25,5.30
2013,03,23,12,26,5.30
2013,03,23,12,27,5.30
2013,03,23,12,28,5.30
2013,03,23,12,29,5.30
2013,03,23,12,30,5.20
2013,03,23,12,31,5.20
2013,03,23,12,32,5.20
2013,03,23,12,33,5.20
2013,03,23,12,34,5.20
2013,03,23,12,35,5.30
2013,03,23,12,36,5.30
2013,03,23,12,37,5.40
2013,03,23,12,38,5.40
2013,03,23,12,39,5.40
2013,03,23,12,40,5.40
2013,03,23,12,41,5.40
2013,03,23,12,42,5.40
2013,03,23,12,43,5.30
2013,03,23,12,44,5.30
2013,03,23,12,45,5.30
2013,03,23,12,46,5.30
2013,03,23,12,47,5.40
2013,03,23,12,48,5.40
2013,03,23,12,49,5.40
2013,03,23,12,50,5.40
2013,03,23,12,51,5.40
2013,03,23,12,52,5.30
2013,03,23,12,53,5.30
2013,03,23,12,54,5.30
2013,03,23,12,55,5.30
2013,03,23,12,56,5.30
2013,03,23,12,57,5.30
2013,03,23,12,58,5.40
2013,03,23,12,59,5.40
2013,03,23,13,00,5.40
2013,03,23,13,01,5.40
2013,03,23,13,02,5.40
2013,03,23,13,03,5.40
2013,03,23,13,04,5.30
2013,03,23,13,05,5.30
2013,03,23,13,06,5.40
2013,03,23,13,07,5.40
2013,03,23,13,08,5.40
2013,03,23,13,09,5.50
2013,03,23,13,10,5.50
2013,03,23,13,11,5.60
2013,03,23,13,12,5.60
2013,03,23,13,13,5.50
2013,03,23,13,14,5.40
2013,03,23,13,15,5.40
2013,03,23,13,16,5.40
2013,03,23,13,17,5.40
2013,03,23,13,18,5.50
2013,03,23,13,19,5.50
2013,03,23,13,20,5.60
2013,03,23,13,21,5.60
2013,03,23,13,22,5.50
2013,03,23,13,23,5.50
2013,03,23,13,24,5.50
2013,03,23,13,25,5.60
2013,03,23,13,26,5.60
2013,03,23,13,27,5.70
2013,03,23,13,28,5.70
2013,03,23,13,29,5.70
2013,03,23,13,30,5.70
2013,03,23,13,31,5.70
2013,03,23,13,32,5.70
2013,03,23,13,33,5.70
2013,03,23,13,34,5.70
2013,03,23,13,35,5.70
2013,03,23,13,36,5.80
2013,03,23,13,37,5.80
2013,03,23,13,38,5.70
2013,03,23,13,39,5.70
2013,03,23,13,40,5.70
2013,03,23,13,41,5.70
2013,03,23,13,42,5.70
2013,03,23,13,43,5.70
2013,03,23,13,44,5.70
2013,03,23,13,45,5.70
2013,03,23,13,46,5.80
2013,03,23,13,47,5.80
2013,03,23,13,48,5.80
2013,03,23,13,49,5.80
2013,03,23,13,50,5.80
2013,03,23,13,51,5.80
2013,03,23,13,52,5.80
2013,03,23,13,53,5.70
2013,03,23,13,54,5.70
2013,03,23,13,55,5.80
2013,03,23,13,56,5.80
2013,03,23,13,57,5.80
2013,03,23,13,58,5.80
2013,03,23,13,59,5.90
2013,03,23,14,00,5.90
2013,03,23,14,01,5.90
2013,03,23,14,02,5.90
2013,03,23,14,03,5.90
2013,03,23,14,04,5.80
2013,03,23,14,05,5.90
2013,03,23,14,06,5.90
2013,03,23,14,07,5.90
2013,03,23,14,08,6.00
2013,03,23,14,09,6.00
2013,03,23,14,10,6.10
2013,03,23,14,11,6.20
2013,03,23,14,12,6.30
2013,03,23,14,13,6.30
2013,03,23,14,14,6.20
2013,03,23,14,15,6.10
2013,03,23,14,16,6.10
2013,03,23,14,17,6.10
2013,03,23,14,18,6.10
2013,03,23,14,19,6.10
2013,03,23,14,20,6.20
2013,03,23,14,21,6.20
2013,03,23,14,22,6.30
2013,03,23,14,23,6.30
2013,03,23,14,24,6.40
2013,03,23,14,25,6.40
2013,03,23,14,26,6.40
2013,03,23,14,27,6.40
2013,03,23,14,28,6.30
2013,03,23,14,29,6.30
2013,03,23,14,30,6.30
2013,03,23,14,31,6.30
2013,03,23,14,32,6.30
2013,03,23,14,33,6.30
2013,03,23,14,34,6.30
2013,03,23,14,35,6.40
2013,03,23,14,36,6.40
2013,03,23,14,37,6.30
2013,03,23,14,38,6.30
2013,03,23,14,39,6.30
2013,03,23,14,40,6.30
2013,03,23,14,41,6.30
2013,03,23,14,42,6.30
2013,03,23,14,43,6.20
2013,03,23,14,44,6.10
2013,03,23,14,45,6.10
2013,03,23,14,46,6.20
2013,03,23,14,47,6.30
2013,03,23,14,48,6.30
2013,03,23,14,49,6.30
2013,03,23,14,50,6.30
2013,03,23,14,51,6.30
2013,03,23,14,52,6.30
2013,03,23,14,53,6.20
2013,03,23,14,54,6.20
2013,03,23,14,55,6.20
2013,03,23,14,56,6.20
2013,03,23,14,57,6.20
2013,03,23,14,58,6.20
2013,03,23,14,59,6.30
2013,03,23,15,00,6.30
2013,03,23,15,01,6.30
2013,03,23,15,02,6.30
2013,03,23,15,03,6.30
2013,03,23,15,04,6.30
2013,03,23,15,05,6.20
2013,03,23,15,06,6.20
2013,03,23,15,07,6.20
2013,03,23,15,08,6.20
2013,03,23,15,09,6.20
2013,03,23,15,10,6.20
2013,03,23,15,11,6.20
2013,03,23,15,12,6.20
2013,03,23,15,13,6.20
2013,03,23,15,14,6.20
2013,03,23,15,15,6.20
2013,03,23,15,16,6.20
2013,03,23,15,17,6.20
2013,03,23,15,18,6.20
2013,03,23,15,19,6.30
2013,03,23,15,20,6.30
2013,03,23,15,21,6.30
2013,03,23,15,22,6.30
2013,03,23,15,23,6.30
2013,03,23,15,24,6.30
2013,03,23,15,25,6.40
2013,03,23,15,26,6.40
2013,03,23,15,27,6.40
2013,03,23,15,28,6.40
2013,03,23,15,29,6.50
2013,03,23,15,30,6.50
2013,03,23,15,31,6.60
2013,03,23,15,32,6.60
2013,03,23,15,33,6.60
2013,03,23,15,34,6.60
2013,03,23,15,35,6.60
2013,03,23,15,36,6.60
2013,03,23,15,37,6.60
2013,03,23,15,38,6.50
2013,03,23,15,39,6.50
2013,03,23,15,40,6.40
2013,03,23,15,41,6.40
2013,03,23,15,42,6.40
2013,03,23,15,43,6.40
2013,03,23,15,44,6.40
2013,03,23,15,45,6.40
2013,03,23,15,46,6.30
2013,03,23,15,47,6.40
2013,03,23,15,48,6.40
2013,03,23,15,49,6.40
2013,03,23,15,50,6.40
2013,03,23,15,51,6.40
2013,03,23,15,52,6.40
2013,03,23,15,53,6.40
2013,03,23,15,54,6.40
2013,03,23,15,55,6.40
2013,03,23,15,56,6.40
2013,03,23,15,57,6.40
2013,03,23,15,58,6.50
2013,03,23,15,59,6.60
2013,03,23,16,00,6.60
2013,03,23,16,01,6.60
2013,03,23,16,02,6.60
2013,03,23,16,03,6.50
2013,03,23,16,04,6.50
2013,03,23,16,05,6.50
2013,03,23,16,06,6.50
2013,03,23,16,07,6.50
2013,03,23,16,08,6.50
2013,03,23,16,09,6.50
2013,03,23,16,10,6.50
2013,03,23,16,11,6.50
2013,03,23,16,12,6.50
2013,03,23,16,13,6.50
2013,03,23,16,14,6.50
2013,03,23,16,15,6.50
2013,03,23,16,16,6.50
2013,03,23,16,17,6.50
2013,03,23,16,18,6.50
2013,03,23,16,19,6.50
2013,03,23,16,20,6.60
2013,03,23,16,21,6.60
2013,03,23,16,22,6.60
2013,03,23,16,23,6.60
2013,03,23,16,24,6.70
2013,03,23,16,25,6.60
2013,03,23,16,26,6.60
2013,03,23,16,27,6.60
2013,03,23,16,28,6.60
2013,03,23,16,29,6.60
2013,03,23,16,30,6.60
2013,03,23,16,31,6.60
2013,03,23,16,32,6.60
2013,03,23,16,33,6.70
2013,03,23,16,34,6.70
2013,03,23,16,35,6.70
2013,03,23,16,36,6.70
2013,03,23,16,37,6.70
2013,03,23,16,38,6.70
2013,03,23,16,39,6.70
2013,03,23,16,40,6.70
2013,03,23,16,41,6.80
2013,03,23,16,42,6.80
2013,03,23,16,43,6.80
2013,03,23,16,44,6.80
2013,03,23,16,45,6.80
2013,03,23,16,46,6.80
2013,03,23,16,47,6.80
2013,03,23,16,48,6.80
2013,03,23,16,49,6.80
2013,03,23,16,50,6.80
2013,03,23,16,51,6.80
2013,03,23,16,52,6.80
2013,03,23,16,53,6.80
2013,03,23,16,54,6.80
2013,03,23,16,55,6.80
2013,03,23,16,56,6.80
2013,03,23,16,57,6.80
2013,03,23,16,58,6.90
2013,03,23,16,59,6.80
2013,03,23,17,00,6.80
2013,03,23,17,01,6.80
2013,03,23,17,02,6.80
2013,03,23,17,03,6.80
2013,03,23,17,04,6.80
2013,03,23,17,05,6.80
2013,03,23,17,06,6.80
2013,03,23,17,07,6.80
2013,03,23,17,08,6.80
2013,03,23,17,09,6.90
2013,03,23,17,10,6.90
2013,03,23,17,11,6.80
2013,03,23,17,12,6.80
2013,03,23,17,13,6.70
2013,03,23,17,14,6.70
2013,03,23,17,15,6.70
2013,03,23,17,16,6.70
2013,03,23,17,17,6.70
2013,03,23,17,18,6.70
2013,03,23,17,19,6.70
2013,03,23,17,20,6.70
2013,03,23,17,21,6.70
2013,03,23,17,22,6.70
2013,03,23,17,23,6.80
2013,03,23,17,24,6.80
2013,03,23,17,25,6.70
2013,03,23,17,26,6.70
2013,03,23,17,27,6.70
2013,03,23,17,28,6.70
2013,03,23,17,29,6.70
2013,03,23,17,30,6.70
2013,03,23,17,31,6.70
2013,03,23,17,32,6.70
2013,03,23,17,33,6.70
2013,03,23,17,34,6.70
2013,03,23,17,35,6.70
2013,03,23,17,36,6.70
2013,03,23,17,37,6.80
2013,03,23,17,38,6.80
2013,03,23,17,39,6.80
2013,03,23,17,40,6.80
2013,03,23,17,41,6.80
2013,03,23,17,42,6.80
2013,03,23,17,43,6.80
2013,03,23,17,44,6.80
2013,03,23,17,45,6.80
2013,03,23,17,46,6.80
2013,03,23,17,47,6.80
2013,03,23,17,48,6.90
2013,03,23,17,49,6.90
2013,03,23,17,50,6.90
2013,03,23,17,51,6.90
2013,03,23,17,52,6.90
2013,03,23,17,53,7.00
2013,03,23,17,54,7.00
2013,03,23,17,55,7.00
2013,03,23,17,56,7.10
2013,03,23,17,57,7.10
2013,03,23,17,58,7.00
2013,03,23,17,59,7.00
2013,03,23,18,00,6.90
2013,03,23,18,01,6.90
2013,03,23,18,02,6.90
2013,03,23,18,03,6.90
2013,03,23,18,04,6.80
2013,03,23,18,05,6.80
2013,03,23,18,06,6.80